Stations météo

réclame
Mon MeteoGroup
Landsort, Suède (2567): Température de l'air & dewpoint: 18.01.2018 04:00:00 - 24.01.2018 04:00:00 (CET)Landsort, Suède (2567): Vitesse du vent & gusts: 18.01.2018 04:00:00 - 24.01.2018 04:00:00 (CET)Landsort, Suède (2567): Direction du vent: 18.01.2018 04:00:00 - 24.01.2018 04:00:00 (CET)Landsort, Suède (2567): reduced air pressure: 18.01.2018 04:00:00 - 24.01.2018 04:00:00 (CET)Landsort, Suède (2567): visibility: 18.01.2018 04:00:00 - 24.01.2018 04:00:00 (CET)Landsort, Suède (2567): Quantités de précipitations: 18.01.2018 04:00:00 - 24.01.2018 04:00:00 (CET)
Date & Time tt [°C] td [°C] ff [km/h] ff [knt] fx [km/h] fx [knt] dd ppp [hPa] vv [km] rr [mm]
24.01.2018 04:00:00 - - - - - - - - - -
24.01.2018 03:00:00 2,5 2,2 61 33 79 43 SSW 1005,1 2,9 2,0
24.01.2018 02:00:00 2,7 1,5 54 29 72 39 SSW 1007,0 9 0,0
24.01.2018 01:00:00 2,0 1,0 56 30 71 38 SSW 1008,5 6 0,0
24.01.2018 00:00:00 1,5 0,8 50 27 72 39 SSW 1010,3 4,7 0,1
23.01.2018 23:00:00 1,2 1,1 50 27 72 39 SSW 1011,7 3,4 0,0
23.01.2018 22:00:00 1,2 -1,1 45 25 69 37 SSW 1013,2 11 0,0
23.01.2018 21:00:00 1,1 -1,7 47 25 65 35 SSW 1014,4 15 0,0
23.01.2018 20:00:00 1,3 -2,7 43 23 61 33 SSW 1015,4 22 0,0
23.01.2018 19:00:00 1,4 -2,5 41 22 56 30 SSW 1016,4 21 0,0
23.01.2018 18:00:00 1,4 -3,6 36 19 50 27 SW 1017,5 16 0,0
23.01.2018 17:00:00 1,3 -3,6 32 18 50 27 SW 1018,1 15 0,0
23.01.2018 16:00:00 1,1 -4,1 39 21 49 26 SW 1019,1 20 0,0
23.01.2018 15:00:00 0,5 -4,1 36 19 50 27 SW 1019,4 22 0,0
23.01.2018 14:00:00 -0,2 -4,5 36 19 50 27 SW 1019,6 24 0,0
23.01.2018 13:00:00 0,1 -3,6 34 19 48 26 SW 1020,1 18 0,0
23.01.2018 12:00:00 0,3 -2,7 32 18 43 23 WSW 1020,6 20 0,5
23.01.2018 11:00:00 -0,1 -0,4 7 4 18 10 SW 1020,6 1,1 0,4
23.01.2018 10:00:00 0,7 -2,8 9 5 21 11 S 1020,4 50 0,0
23.01.2018 09:00:00 0,3 -2,8 11 6 22 12 SSW 1020,1 50 0,0
23.01.2018 08:00:00 0,0 -2,7 14 8 18 10 S 1020,0 50 0,0
23.01.2018 07:00:00 -0,6 -3,2 8 4 12 6 S 1020,0 29 0,3
23.01.2018 06:00:00 -1,4 -3,9 4 2 11 6 S 1020,2 50 0,0
23.01.2018 05:00:00 -1,7 -4,6 4 2 11 6 S 1020,0 50 0,0
23.01.2018 04:00:00 -2,5 -5,3 0 0 6 3 N 1019,8 50 0,0
23.01.2018 03:00:00 -2,8 -5,5 4 2 4 2 ESE 1019,7 50 0,0
23.01.2018 02:00:00 -3,2 -5,8 0 0 11 6 N 1019,4 50 0,0
23.01.2018 01:00:00 -3,3 -6,1 0 0 13 7 N 1019,0 50 0,0
23.01.2018 00:00:00 -3,4 -6,0 7 4 14 8 N 1018,5 50 0,0
22.01.2018 23:00:00 -3,5 -6,4 4 2 11 6 N 1018,3 50 0,0
22.01.2018 22:00:00 -3,6 -6,4 6 3 11 6 N 1017,9 50 0,0
22.01.2018 21:00:00 -4,2 -6,1 7 4 14 8 N 1017,6 50 0,0
22.01.2018 20:00:00 -4,9 -6,3 7 4 22 12 N 1017,1 50 0,0
22.01.2018 19:00:00 -4,3 -5,9 11 6 29 16 N 1016,5 50 0,0
22.01.2018 18:00:00 -3,3 -5,3 18 10 29 16 W 1016,0 50 0,0
22.01.2018 17:00:00 -3,9 -5,3 18 10 29 16 W 1015,7 50 0,0
22.01.2018 16:00:00 -3,9 -4,7 15 8 21 12 W 1015,2 50 0,0
22.01.2018 15:00:00 -4,2 -4,4 11 6 18 10 NW 1014,9 40 0,0
22.01.2018 14:00:00 -4,2 -4,3 7 4 18 10 NW 1014,8 30 0,0
22.01.2018 13:00:00 -4,6 -4,8 8 5 23 13 NNW 1014,7 24 0,0
22.01.2018 12:00:00 - - - - - - - - - -
22.01.2018 11:00:00 - - - - - - - - - -
22.01.2018 10:00:00 -5,4 -5,7 11 6 16 8 WNW 1014,7 0,2 0,0
22.01.2018 09:00:00 -4,6 -4,7 11 6 14 8 WNW 1014,2 0,1 0,0
22.01.2018 08:00:00 -4,0 -4,2 7 4 14 8 NW 1014,1 0,2 0,0
22.01.2018 07:00:00 -4,5 -4,7 4 2 15 8 NW 1013,9 0,2 0,1
22.01.2018 06:00:00 -4,0 -4,2 11 6 18 10 NNW 1014,3 7 0,0
22.01.2018 05:00:00 -3,8 -4,0 11 6 18 10 NW 1014,8 13 0,0
22.01.2018 04:00:00 -3,2 -3,3 8 5 18 10 WNW 1014,9 10 0,0
22.01.2018 03:00:00 -3,3 -3,5 11 6 18 10 NW 1015,3 9 0,0
22.01.2018 02:00:00 -2,8 -3,3 11 6 18 10 NW 1015,6 22 0,0
22.01.2018 01:00:00 -3,0 -3,8 10 6 23 12 NNW 1015,9 21 0,0
22.01.2018 00:00:00 -1,2 -3,3 11 6 22 12 WNW 1016,1 50 0,0
21.01.2018 23:00:00 -1,0 -2,8 14 8 25 14 WNW 1016,4 50 0,0
21.01.2018 22:00:00 -0,4 -2,4 19 10 24 13 W 1016,3 36 0,0
21.01.2018 21:00:00 0,4 -1,9 18 10 22 12 W 1016,3 50 0,0
21.01.2018 20:00:00 -0,7 -2,5 7 4 11 6 WSW 1016,4 45 0,0
21.01.2018 19:00:00 -0,7 -2,8 5 3 9 5 WNW 1016,6 47 0,0
21.01.2018 18:00:00 -0,4 -3,2 4 2 7 4 NW 1016,7 50 0,0
21.01.2018 17:00:00 -0,5 -2,3 4 2 7 4 WNW 1016,6 35 0,0
21.01.2018 16:00:00 0,1 -3,2 3 2 9 5 NW 1016,5 50 0,0
21.01.2018 15:00:00 0,5 -3,9 4 2 14 8 NNE 1016,2 45 0,0
21.01.2018 14:00:00 0,5 -3,9 7 4 14 8 ENE 1015,8 45 0,0
21.01.2018 13:00:00 0,5 -3,7 11 6 16 9 NNE 1015,6 50 0,0
21.01.2018 12:00:00 0,4 -3,5 11 6 18 10 NE 1015,3 45 0,0
21.01.2018 11:00:00 0,2 -2,2 14 8 14 8 NE 1015,2 45 0,0
21.01.2018 10:00:00 -0,1 -1,2 7 4 15 8 NNE 1014,9 44 0,0
21.01.2018 09:00:00 -0,3 -1,0 11 6 14 8 NNE 1014,0 30 0,0
21.01.2018 08:00:00 -0,4 -1,1 11 6 18 10 NE 1013,4 22 0,0
21.01.2018 07:00:00 -0,5 -1,8 10 5 19 11 NNE 1012,9 36 0,0
21.01.2018 06:00:00 -0,4 -1,7 14 8 18 10 NNE 1012,6 28 0,0
21.01.2018 05:00:00 0,4 -1,6 14 8 22 12 NE 1012,1 40 0,0
21.01.2018 04:00:00 1,0 -3,6 13 7 22 12 E 1011,6 46 0,0
21.01.2018 03:00:00 1,1 -3,1 14 8 25 14 ESE 1011,1 50 0,0
21.01.2018 02:00:00 0,9 -3,5 18 10 29 16 ESE 1010,6 50 0,0
21.01.2018 01:00:00 1,1 -2,6 23 12 32 18 ESE 1010,3 50 0,0
21.01.2018 00:00:00 1,2 -2,2 25 14 32 18 ESE 1009,8 50 0,0
20.01.2018 23:00:00 1,4 -2,2 25 14 32 18 SE 1009,5 45 0,0
20.01.2018 22:00:00 1,7 -3,0 24 13 30 16 ESE 1009,3 50 0,0
20.01.2018 21:00:00 1,7 -3,1 25 14 29 16 ESE 1008,9 50 0,0
20.01.2018 20:00:00 1,7 -2,4 22 12 32 18 SE 1008,6 50 0,0
20.01.2018 19:00:00 1,7 -2,0 24 13 31 17 ESE 1008,6 50 0,0
20.01.2018 18:00:00 1,9 -1,8 25 14 29 16 SE 1008,2 45 0,0
20.01.2018 17:00:00 1,9 -3,0 22 12 29 16 ESE 1008,2 50 0,0
20.01.2018 16:00:00 2,0 -3,1 22 12 26 14 SE 1008,2 50 0,0
20.01.2018 15:00:00 2,0 -3,5 18 10 29 16 SSE 1008,1 45 0,0
20.01.2018 14:00:00 2,1 -3,5 18 10 29 16 SE 1007,8 50 0,0
20.01.2018 13:00:00 2,2 -2,1 22 12 29 16 SSE 1007,8 46 0,0
20.01.2018 12:00:00 2,2 -2,3 22 12 36 19 SSE 1008,1 45 0,0
20.01.2018 11:00:00 2,3 -2,7 25 14 36 19 SSE 1008,3 30 0,0
20.01.2018 10:00:00 2,2 -2,1 30 16 45 25 SE 1008,2 38 0,0
20.01.2018 09:00:00 1,8 -0,7 32 18 47 25 SSE 1007,9 45 0,0
20.01.2018 08:00:00 2,0 -1,8 14 8 47 25 SE 1007,6 50 0,1
20.01.2018 07:00:00 2,4 -1,2 31 17 40 21 SE 1007,3 42 0,0
20.01.2018 06:00:00 1,1 -0,4 29 16 40 21 ESE 1007,3 22 0,0
20.01.2018 05:00:00 1,9 -0,5 25 14 36 19 SE 1007,3 50 0,0
20.01.2018 04:00:00 2,3 -0,5 30 16 37 20 SE 1007,1 38 0,0
20.01.2018 03:00:00 2,4 -1,7 22 12 29 16 SE 1007,3 50 0,0
20.01.2018 02:00:00 2,3 -1,8 25 14 29 16 SE 1007,2 50 0,0
20.01.2018 01:00:00 2,4 -2,2 24 13 33 18 SE 1007,2 50 0,0
20.01.2018 00:00:00 2,3 -2,6 25 14 32 18 SE 1006,9 50 0,0
19.01.2018 23:00:00 2,3 -1,7 29 16 32 18 SE 1006,8 45 0,0
19.01.2018 22:00:00 2,2 -1,3 16 8 32 17 SE 1006,8 50 0,0
19.01.2018 21:00:00 2,2 -1,7 25 14 32 18 ESE 1006,3 45 0,0
19.01.2018 20:00:00 1,3 -0,2 18 10 32 18 SSE 1006,1 30 0,0
19.01.2018 19:00:00 2,0 -2,1 21 12 40 22 E 1005,6 50 0,0
19.01.2018 18:00:00 1,9 -1,6 32 18 40 21 E 1005,3 45 0,0
19.01.2018 17:00:00 1,8 -1,2 36 19 40 21 E 1005,2 40 0,0
19.01.2018 16:00:00 1,7 -1,6 30 16 36 19 E 1004,9 50 0,0
19.01.2018 15:00:00 1,6 -1,8 29 16 36 19 E 1004,4 50 0,0
19.01.2018 14:00:00 1,8 -2,0 25 14 32 18 E 1004,0 50 0,0
19.01.2018 13:00:00 1,7 -2,6 20 11 35 19 ENE 1003,7 50 0,0
19.01.2018 12:00:00 1,7 -2,4 18 10 36 19 E 1003,3 50 0,0
19.01.2018 11:00:00 1,6 -2,0 29 16 40 21 E 1002,8 35 0,0
19.01.2018 10:00:00 1,7 -2,3 29 15 38 20 E 1002,3 47 0,0
19.01.2018 09:00:00 1,7 -2,3 32 18 36 19 E 1001,6 50 0,0
19.01.2018 08:00:00 1,6 -3,6 25 14 36 19 E 1001,0 50 0,0
19.01.2018 07:00:00 1,5 -3,5 28 15 34 19 E 1000,2 50 0,0
19.01.2018 06:00:00 1,3 -3,4 25 14 32 18 E 999,7 50 0,0
19.01.2018 05:00:00 1,2 -4,3 25 14 36 19 E 999,1 50 0,0
19.01.2018 04:00:00 1,2 -4,1 27 15 34 19 E 998,7 50 0,0
19.01.2018 03:00:00 1,1 -3,5 25 14 40 21 E 998,4 50 0,0
19.01.2018 02:00:00 1,0 -4,3 25 14 40 21 E 998,0 50 0,0
19.01.2018 01:00:00 1,4 -4,1 30 16 44 24 E 997,3 50 0,0
19.01.2018 00:00:00 1,4 -3,0 32 18 43 23 E 997,0 50 0,0
18.01.2018 23:00:00 1,6 -1,7 36 19 43 23 E 996,5 30 0,0
18.01.2018 22:00:00 1,7 -2,1 36 19 44 24 ESE 996,1 42 0,0
18.01.2018 21:00:00 1,7 -0,7 36 19 43 23 ESE 995,6 35 0,0
18.01.2018 20:00:00 1,4 1,0 36 19 50 27 SE 994,9 26 0,2
18.01.2018 19:00:00 0,2 0,0 34 18 51 28 SE 994,8 1,0 1,0
18.01.2018 18:00:00 1,1 1,0 43 23 50 27 ESE 994,0 5 0,0
18.01.2018 17:00:00 1,6 1,4 43 23 50 27 ESE 994,0 12 0,3
18.01.2018 16:00:00 1,3 0,7 35 19 45 24 ESE 993,8 7 0,0
18.01.2018 15:00:00 1,5 1,3 36 19 43 23 ESE 993,7 11 0,1
18.01.2018 14:00:00 0,4 0,3 36 19 40 21 ESE 993,6 4,9 0,1
18.01.2018 13:00:00 1,2 -0,5 30 16 37 20 ESE 993,7 22 0,1
18.01.2018 12:00:00 1,1 -0,2 32 18 36 19 E 993,8 4,2 0,0
18.01.2018 11:00:00 1,0 -0,8 29 16 36 19 E 994,4 6 0,0
18.01.2018 10:00:00 1,2 -1,5 25 14 34 19 E 994,5 8 0,0
18.01.2018 09:00:00 1,3 -2,2 25 14 36 19 ESE 994,6 28 0,0
18.01.2018 08:00:00 1,1 -2,2 29 16 36 19 E 994,2 25 0,0
18.01.2018 07:00:00 0,7 -2,1 26 14 36 19 E 994,1 23 0,0
18.01.2018 06:00:00 0,6 -1,9 29 16 36 19 E 993,9 16 0,0
18.01.2018 05:00:00 0,4 -1,7 29 16 36 19 E 994,0 8 0,0
18.01.2018 04:00:00 0,5 -0,8 28 15 37 20 E 994,0 4,7 0,0

tt = Température de l'air
td = dewpoint
ff = Vitesse du vent
fx = gusts
dd = Direction du vent
ppp = reduced air pressure
vv = visibility
rr = Quantités de précipitations

stations d'obs. à proximité